, AK

(GMT )
Tin City

Weather History for PATC - May, 2014

Change the Weather History Date:

Friday, May 2, 2014

  Actual Average Record
Temperature  
Mean Temperature 31 °F -  
Max Temperature 32 °F 26 °F 42 °F (1997)
Min Temperature 30 °F 17 °F 1 °F (2001)
Degree Days  
Heating Degree Days 34    
Moisture  
Dew Point 32 °F    
Average Humidity 100    
Maximum Humidity 100    
Minimum Humidity 100    
Precipitation  
Precipitation 0.00 in - - ()
Sea Level Pressure  
Sea Level Pressure 30.42 in    
Wind  
Wind Speed - (North)    
Max Wind Speed -    
Max Gust Speed -    
Averages and records for this station are not official NWS values.
T = Trace of Precipitation, MM = Missing Value Source: NWS Daily Summary

Daily Weather History Graph

Daily Weather History Graph

Search for Another Location

Airport or City:

Trip Planner

Search our weather history database for the weather conditions in past years. The results will help you decide how hot, cold, wet, or windy it might be!

Date:

Astronomy

May. 02, 2014 Rise Set
Actual Time 6:27 AM AKDT 11:52 PM AKDT
Civil Twilight 5:06 AM AKDT 1:15 AM AKDT
Nautical Twilight Sun does not rise Sun does not rise
Astronomical Twilight Sun does not rise Sun does not rise
Moon 8:45 AM AKDT (5/2) 3:04 AM AKDT (5/2)
Length of Visible Light 20h 08m
Length of Day
17h 24m
Waxing Crescent, 13% of the Moon is Illuminated
May 2
Waxing Crescent
May 6
First Quarter
May 14
Full
May 21
Last Quarter
May 28
New

Hourly Weather History & Observations

Time (AKDT) Temp. Dew Point Humidity Pressure Visibility Wind Dir Wind Speed Gust Speed Precip Events Conditions
12:55 AM 31.6 °F 32.0 °F 100% 30.46 in 0.2 mi North - - 0.00 in Fog , Rain Light Freezing Rain
1:55 AM 31.5 °F 31.8 °F 100% 30.46 in 0.2 mi North - - 0.00 in Fog , Rain Light Freezing Rain
2:55 AM 31.8 °F 32.2 °F 100% 30.45 in 0.2 mi North - - 0.00 in Fog , Rain Light Freezing Rain
3:55 AM 31.6 °F 32.0 °F 100% 30.45 in 0.2 mi North - - 0.00 in Fog , Rain Light Freezing Rain
4:32 AM 30.2 °F 30.2 °F 100% 30.45 in 0.2 mi North - - N/A Fog , Rain , Snow Light Freezing Rain
4:52 AM 32.0 °F 32.0 °F 100% 30.45 in 0.2 mi North - - N/A Fog , Rain Light Rain
4:55 AM 31.1 °F 31.5 °F 100% 30.45 in 0.2 mi North - - 0.00 in Fog , Rain Light Freezing Rain
5:55 AM 31.8 °F 32.2 °F 100% 30.45 in 0.2 mi North - - 0.00 in Fog , Rain Light Freezing Rain
6:55 AM 32.0 °F 32.4 °F 100% 30.45 in 0.2 mi North - - 0.00 in Fog , Rain Light Rain
7:12 AM 32.0 °F 32.0 °F 100% 30.45 in 0.8 mi North - - N/A Rain Light Rain
7:32 AM 32.0 °F 32.0 °F 100% 30.45 in 4.0 mi North - - N/A Rain Light Rain
7:52 AM 32.0 °F 32.0 °F 100% 30.45 in 2.0 mi North - - N/A Rain Light Rain Showers
7:55 AM 32.2 °F 32.5 °F 100% 30.45 in 1.0 mi North - - 0.00 in Rain Light Rain Showers
8:12 AM 32.0 °F 32.0 °F 100% 30.45 in 0.2 mi North - - N/A Fog , Rain Light Rain Showers
8:32 AM 32.0 °F 32.0 °F 100% 30.46 in 0.5 mi North - - N/A Fog Light Drizzle
8:52 AM 32.0 °F 32.0 °F 100% 30.46 in 0.8 mi North - - N/A   Light Drizzle
8:55 AM 32.2 °F 32.5 °F 100% 30.46 in 0.8 mi North - - 0.00 in   Light Drizzle
9:12 AM 32.0 °F 32.0 °F 100% 30.46 in 1.2 mi North - - N/A   Light Drizzle
9:32 AM 32.0 °F 32.0 °F 100% 30.45 in 1.5 mi North - - N/A   Light Drizzle
9:52 AM 32.0 °F 32.0 °F 100% 30.45 in 0.8 mi North - - N/A Rain Light Rain
9:55 AM 32.0 °F 32.4 °F 100% 30.45 in 0.5 mi North - - 0.00 in Fog , Rain Light Rain
10:12 AM 32.0 °F 32.0 °F 100% 30.44 in 0.2 mi North - - N/A Fog Light Drizzle
10:55 AM 31.8 °F 32.2 °F 100% 30.44 in 0.2 mi North - - 0.00 in Fog , Rain Light Freezing Rain
11:55 AM 32.2 °F 32.5 °F 100% 30.43 in 0.2 mi North - - 0.00 in Fog , Rain Light Rain
12:55 PM 31.8 °F 32.2 °F 100% 30.44 in 0.2 mi North - - 0.00 in Fog , Rain Light Freezing Rain
1:55 PM 32.0 °F 32.4 °F 100% 30.43 in 0.2 mi North - - 0.00 in Fog , Rain Light Rain Showers
2:12 PM 32.0 °F 32.0 °F 100% 30.43 in 0.2 mi North - - N/A Fog Fog
2:55 PM 31.6 °F 32.2 °F 100% 30.42 in 0.2 mi North - - N/A Fog Fog
3:55 PM 31.6 °F 32.2 °F 100% 30.41 in 0.2 mi North - - N/A Fog Fog
4:55 PM 31.6 °F 32.2 °F 100% 30.39 in 0.2 mi North - - N/A Fog Fog
5:55 PM 31.8 °F 32.2 °F 100% 30.38 in 0.2 mi North - - N/A Fog Fog
6:55 PM 31.6 °F 32.2 °F 100% 30.36 in 0.2 mi North - - N/A Fog Fog
7:55 PM 31.6 °F 32.0 °F 100% 30.35 in 0.2 mi North - - N/A Fog Fog
8:55 PM 31.6 °F 32.0 °F 100% 30.33 in 0.2 mi North - - N/A Fog Fog
9:52 PM 32.0 °F 32.0 °F 100% 30.32 in 0.2 mi North - - N/A Fog , Rain Light Rain
9:55 PM 31.8 °F 32.2 °F 100% 30.31 in 0.2 mi North - - 0.00 in Fog , Rain Light Freezing Rain
10:55 PM 31.6 °F 32.2 °F 100% 30.30 in 0.2 mi North - - 0.00 in Fog , Rain Light Freezing Rain
11:55 PM 31.6 °F 32.2 °F 100% 30.29 in 0.2 mi North - - 0.00 in Fog , Rain Light Freezing Rain